Regional Weather Roundup
Issued by NWS State College, PA

Home | Current Version | Previous Version | Graphics & Text | Print | Product List | Glossary Off
Versions: 1 2 3 4 5 6 7 8 9 10 11 12 13 14 15 16 17 18 19 20 21 22 23 24 25 26 27 28 29 30 31 32 33 34 35 36 37 38 39 40 41 42 43 44 45 46 47 48 49 50

000
ASUS41 KCTP 291303
RWRCTP

REGIONAL WEATHER ROUNDUP
NATIONAL WEATHER SERVICE STATE COLLEGE PA
900 AM EDT TUE JUL 29 2014

Note: "fair" indicates few or no clouds below 12,000 feet with no
significant weather and/or obstructions to visibility.

* = STATION THAT DOES NOT REPORT PRECIPITATION /E.G. RAIN...SNOW...ETC/
    THUNDER OR FOG.

PAZ002>004-007>009-013>016-020>023-029>032-291400-
WESTERN PENNSYLVANIA

CITY           SKY/WX    TMP DP  RH WIND       PRES   REMARKS
ERIE           CLOUDY    64  51  62 N7        29.96R
MEADVILLE      CLOUDY    57  52  83 W3        29.98R
FRANKLIN*      CLOUDY    55  48  76 SW5       29.99S
NEW CASTLE       N/A     58  52  80 CALM      30.00R
BEAVER COUNTY  CLOUDY    55  52  88 W6        30.00R
BUTLER*        CLOUDY    57  50  77 W6        30.01R
PITTSBURGH INT PTSUNNY   55  51  86 W6        30.00R
PITTSBURGH     CLOUDY    55  49  80 W6        30.00R
INDIANA*       CLOUDY    55  52  88 W5        30.03S
LATROBE        CLOUDY    55  54  94 SW9       30.01R
WASHINGTON CO* MOSUNNY   57  50  77 W3        30.02R
$$

PAZ004>006-010>012-017>019-024>028-033>037-041-042-045-046-049>053-291400-
CENTRAL PENNSYLVANIA

CITY           SKY/WX    TMP DP  RH WIND       PRES   REMARKS
BRADFORD       CLOUDY    53  50  89 NW5       29.96R
DUBOIS         CLOUDY    54  51  90 W5        29.97R
CLEARFIELD     CLOUDY    56  52  86 SW6       29.97R
JOHNSTOWN      CLOUDY    51  48  89 NW6       29.99R
ALTOONA        CLOUDY    56  50  80 NW6       29.98R
STATE COLLEGE  CLOUDY    59  52  77 W6        29.95R
WILLIAMSPORT   MOSUNNY   64  51  62 NW10      29.92R
SELINSGROVE    PTSUNNY   66  55  67 NW8       29.93R
FT INDIANTOWN  PTSUNNY   65  60  85 W7        29.92S
CAPITAL CITY   CLOUDY    64  54  69 W9        29.93R
HARRISBURG     MOSUNNY   65  56  72 NW13      29.92R
YORK           PTSUNNY   64  57  78 W6        29.93R
$$

PAZ038>040-043-044-047-048-054-055-060>062-067>071-291400-
EASTERN PENNSYLVANIA

CITY           SKY/WX    TMP DP  RH WIND       PRES   REMARKS
SCRANTON       MOSUNNY   62  53  72 CALM      29.91R
MOUNT POCONO   SUNNY     58  50  75 NW9       29.91R
ALLENTOWN      MOSUNNY   64  53  67 CALM      29.90R
QUAKERTOWN*    SUNNY     64  55  72 NW6       29.91S
READING        SUNNY     67  56  67 NW7       29.91R
LANCASTER      SUNNY     63  57  81 W7        29.92R
COATESVILLE    SUNNY     63  63 100 NW9       29.92S
POTTSTOWN      SUNNY     65  56  72 NW9       29.91S
BLUE BELL      MOSUNNY   64  55  72 NW5       29.89S
DOYLESTOWN     MOSUNNY   63  56  78 W8        29.89R
WILLOW GROVE   NOT AVBL
NORTH PHILA    SUNNY     68  53  58 NW10      29.91R
PHILADELPHIA   PTSUNNY   67  53  61 VRB6      29.90R
$$



USA.gov is the U.S. government's official web portal to all federal, state and local government web resources and services.